Temperature
16 16 16 16 16 16 16 16 17 17 17 16 16 15 15 15 15 15 15 15 15 15 15 15 15 15 15 15 15 15 15 15 15 15 15 15 15 14
16 16 16 16 16 16 16 16 16 16 17 16 16 15 15 15 15 14 14 15 15 15 15 15 15 15 15 15 15 15 15 14 15 15 15 14 14 14
16 16 15 15 15 16 15 15 15 15 16 16 15 15 15 14 14 14 14 14 14 14 14 14 14 14 14 14 14 14 14 14 14 14 14 14 14 14
15 15 15 15 15 15 15 15 15 15 15 15 15 15 14 14 14 14 14 14 14 14 14 14 14 14 14 14 14 14 14 14 14 14 14 14 14 14
15 15 15 14 14 15 15 15 15 15 15 15 15 14 14 14 14 14 14 14 14 14 14 14 14 14 14 14 14 13 13 13 13 13 13 13 13 13
15 15 14 14 14 14 14 14 14 14 14 14 14 14 14 14 14 14 14 14 14 14 14 14 14 14 14 13 13 13 13 13 13 13 13 13 13 13
15 14 14 14 14 14 14 14 14 14 14 14 14 14 14 13 14 14 14 14 14 13 13 13 13 13 13 13 13 13 13 13 13 13 13 13 13 13
14 14 14 14 14 14 14 14 14 14 14 14 14 14 13 13 13 13 13 13 14 13 13 13 13 13 13 13 13 13 13 13 13 13 13 12 12 12
14 14 14 14 14 14 14 14 14 14 13 13 13 13 13 13 13 13 13 13 13 13 13 13 13 13 13 13 13 13 13 13 12 12 12 12 12 12
14 14 14 14 14 14 13 13 13 13 13 13 13 12 12 12 12 12 12 12 13 13 12 13 13 13 13 13 12 12 12 12 12 12 12 12 12 12
14 13 13 13 13 13 13 13 13 13 13 13 13 13 13 12 12 12 12 12 13 13 12 12 13 13 13 12 12 12 12 12 12 12 12 12 12 12
13 13 13 13 13 13 13 13 12 12 12 13 12 12 12 12 12 12 12 12 12 13 12 12 12 12 12 12 12 12 12 12 12 12 12 12 12 11
13 13 13 13 13 13 13 12 12 12 12 12 12 12 12 12 12 12 12 12 12 12 12 12 12 12 12 12 12 12 11 11 11 11 11 11 11 11
13 13 13 13 13 13 13 12 12 12 12 12 12 12 12 12 12 12 11 11 11 11 11 11 11 11 12 12 12 12 11 11 11 11 11 11 11 11
13 13 13 13 13 12 12 12 12 12 12 12 12 12 12 12 11 11 11 11 11 11 11 11 11 11 11 12 12 12 12 11 11 11 10 10 11 11
12 12 12 12 12 12 12 12 12 12 12 12 12 12 12 12 11 11 11 11 11 11 11 11 11 11 11 11 11 11 11 11 11 10 10 10 10 10
12 12 12 12 12 12 12 12 12 12 12 12 12 12 11 11 11 11 11 11 11 11 11 11 11 11 11 11 11 11 11 11 11 10 10 10 10 10
11 11 12 12 12 12 12 12 12 11 11 11 11 11 11 11 11 11 11 11 11 11 11 11 11 11 11 11 11 11 11 11 10 10 10 10 10 10
11 11 11 11 11 11 11 11 11 11 11 11 11 11 11 11 11 11 11 11 11 11 11 11 11 11 11 11 11 11 10 10 10 10 10 10 10 10
11 11 11 11 11 11 11 11 11 11 11 11 11 11 11 11 11 11 11 11 11 11 11 11 10 10 10 11 11 10 10 10 10 10 10 10 10 10
11 11 11 11 11 11 11 10 10 10 10 10 11 10 10 11 11 11 11 11 10 10 11 10 10 10 10 10 10 10 10 10 10 10 9 10 10 9
10 10 10 10 10 10 10 10 10 10 10 10 10 10 10 10 10 10 10 10 10 10 10 10 10 10 10 10 10 10 10 9 9 9 9 9 9 9
10 10 10 10 10 10 10 10 10 10 10 10 10 10 10 10 10 10 10 10 10 10 10 10 10 10 10 10 10 10 10 9 9 9 9 9 9 9
Wind_Speed
2 2 3 3 3 4 4 4 5 5 3 2 2 1 1 1 1 3 3 4 6 6 6 6 5 5 5 6 6 6 6 6 6 7 7 8 7 7
2 2 3 3 3 3 4 4 5 5 5 2 2 1 1 1 2 3 3 4 6 7 7 7 6 6 5 5 5 5 5 6 6 6 6 7 7 7
3 2 2 4 4 3 3 4 4 5 5 4 2 1 1 3 2 4 4 5 4 8 7 7 6 6 6 5 5 5 5 6 7 7 7 7 7 6
3 2 3 2 3 3 3 4 3 4 4 4 3 3 3 3 3 4 4 4 4 7 8 8 7 7 7 6 6 6 5 6 6 7 7 7 7 7
3 3 3 3 3 2 3 3 3 3 3 4 4 3 3 3 3 4 4 4 5 5 9 10 9 9 8 9 8 7 6 6 6 7 7 7 7 7
3 3 3 3 3 3 3 3 3 3 4 4 4 4 3 3 3 4 4 3 4 4 3 4 8 10 10 10 9 8 7 6 6 7 7 7 7 7
4 4 4 2 2 3 3 3 3 4 4 4 4 4 3 3 4 4 4 4 4 4 4 4 4 5 7 10 10 9 8 8 7 7 7 8 8 7
4 4 4 3 3 3 2 3 4 5 5 5 4 4 4 4 4 5 5 5 5 2 4 5 4 4 4 4 6 9 9 9 8 8 8 8 9 9
4 4 4 2 3 3 4 6 5 5 5 6 5 5 4 4 4 5 5 6 6 4 4 6 4 5 5 3 8 9 9 9 9 9 9 9 9 10
5 5 5 4 3 3 4 4 5 4 5 5 4 5 4 3 4 5 5 6 6 5 4 6 5 5 4 4 8 10 9 9 9 9 9 9 9 10
6 5 5 5 2 3 5 5 4 4 4 3 3 3 3 4 5 5 5 6 5 4 4 5 5 5 5 5 5 11 11 11 10 10 9 9 9 10
5 6 4 4 3 4 6 6 6 5 4 4 5 6 6 6 7 6 6 6 5 5 3 4 5 5 5 4 4 5 7 10 12 11 10 10 9 8
5 5 4 6 5 5 7 6 5 5 6 6 5 4 5 4 5 5 6 6 6 6 4 4 5 5 5 4 3 4 4 4 6 8 11 11 10 8
6 5 3 6 7 7 6 4 4 6 6 5 5 5 5 5 4 4 5 6 7 8 7 7 7 6 6 6 5 4 4 4 4 5 5 8 10 11
5 3 2 6 7 7 8 7 6 6 6 6 6 5 5 4 4 4 5 6 7 8 8 8 8 7 7 7 6 5 4 4 4 5 5 5 5 6
6 4 5 7 7 5 5 7 7 6 6 6 6 5 5 4 5 5 5 5 5 6 6 8 8 7 7 7 6 6 5 4 4 4 5 5 5 5
4 4 5 5 5 6 5 5 6 6 6 6 6 6 5 5 5 5 5 6 6 6 5 4 6 6 7 6 6 5 5 4 4 4 5 6 6 6
5 6 6 6 6 6 5 5 5 6 6 6 6 6 6 6 6 5 5 6 7 6 5 4 4 4 5 5 5 6 5 5 4 4 6 6 6 5
6 6 5 5 5 5 5 5 5 5 5 6 6 6 6 6 6 6 6 6 6 6 5 4 4 5 6 6 4 5 6 5 5 5 6 6 7 5
6 5 5 5 5 5 5 5 6 5 5 6 6 6 6 6 6 6 6 7 7 6 5 5 5 5 6 6 5 4 6 6 5 6 6 6 5 3
5 5 5 5 5 5 5 6 6 6 5 6 6 6 6 6 6 7 6 6 7 7 6 5 3 4 6 5 6 5 4 5 5 5 6 6 6 6
6 5 5 5 5 5 5 5 5 5 5 6 6 5 6 6 7 7 7 6 7 7 6 5 3 4 5 6 7 6 5 4 3 4 5 5 5 5
6 5 5 5 5 5 5 5 6 6 6 6 6 6 6 6 6 6 6 7 7 6 6 6 5 5 6 6 7 6 6 5 4 4 4 5 6 5
Wind_Direction
250 249 267 274 264 270 267 265 271 276 268 211 233 197 199 223 171 245 243 188 204 214 218 219 219 223 228 229 230 232 229 232 231 228 224 220 217 219
266 298 290 286 283 265 260 261 265 270 281 269 234 239 271 245 202 247 248 179 202 211 211 211 212 216 220 227 230 230 230 234 231 227 223 223 220 214
242 241 262 291 284 276 267 262 259 259 260 265 242 206 248 277 262 256 249 241 210 191 202 206 208 212 218 220 223 230 232 236 237 232 227 226 222 214
237 244 255 264 270 279 282 275 271 265 253 256 252 231 230 248 259 263 259 251 256 178 192 204 208 214 220 221 223 230 234 234 231 231 230 229 227 219
233 239 251 263 270 275 273 274 270 261 250 248 248 251 248 250 254 257 265 273 266 203 196 203 208 215 218 215 217 221 226 231 231 232 235 230 225 220
237 244 252 261 265 264 254 259 267 270 254 250 249 243 242 244 255 260 259 254 267 268 241 222 206 206 210 211 214 215 218 224 229 232 235 231 222 218
238 243 246 253 300 292 288 281 268 264 262 257 254 254 252 254 260 270 272 275 262 270 265 253 226 225 211 210 211 212 215 219 222 227 232 228 220 216
239 244 240 220 209 213 265 296 294 269 271 269 262 263 267 265 272 273 275 276 273 266 279 276 270 263 246 230 186 194 209 218 224 226 226 224 219 215
238 244 250 229 205 227 216 220 241 255 268 275 276 275 269 272 275 270 277 282 285 288 276 272 265 261 257 224 169 187 204 217 225 228 228 228 226 220
238 237 242 246 237 244 247 240 241 239 244 252 270 277 277 272 260 266 273 267 266 262 259 266 264 261 263 242 183 190 202 214 221 224 225 227 227 224
241 238 239 235 220 246 245 245 247 243 221 221 257 272 288 269 267 263 260 262 268 262 245 265 274 267 259 246 208 194 202 207 212 214 215 218 223 224
234 234 220 231 210 228 241 249 251 254 258 238 229 230 234 228 231 251 259 261 269 267 239 256 269 270 265 251 240 220 212 205 204 205 207 212 220 229
245 239 222 179 209 228 250 257 260 266 255 250 247 246 242 239 240 245 256 263 267 269 267 253 271 270 269 274 264 249 238 230 216 209 204 205 210 222
251 250 224 178 207 227 238 242 250 259 255 252 252 253 253 252 251 254 255 262 268 269 273 276 271 273 270 268 270 258 241 240 239 233 220 197 206 214
260 284 235 195 208 221 221 224 232 246 252 251 252 254 256 257 259 250 245 243 250 255 250 253 259 262 264 266 270 266 258 248 242 241 235 224 226 223
250 227 198 201 222 230 215 220 234 244 251 254 256 256 254 247 248 257 262 255 252 254 242 243 245 252 257 262 264 263 259 258 249 246 248 243 238 238
254 241 233 222 224 226 230 234 238 238 243 252 257 257 256 258 257 257 259 264 264 264 258 242 233 235 247 263 266 262 260 260 254 250 253 254 249 242
238 237 234 234 237 236 236 239 243 248 253 257 259 257 256 257 256 255 253 256 262 265 265 257 236 236 239 239 245 259 262 261 259 244 254 260 256 248
232 241 240 241 243 244 243 247 251 247 250 253 253 254 259 259 255 254 252 255 261 263 263 258 251 251 254 257 240 232 255 264 262 254 249 255 262 264
245 250 246 243 243 245 249 255 258 254 248 252 257 258 257 260 260 256 253 254 258 258 255 250 248 252 260 272 276 256 231 250 261 263 259 261 265 261
248 253 254 250 246 243 247 252 256 254 255 259 261 261 259 260 263 263 259 254 257 258 256 252 248 246 263 265 260 254 237 217 244 263 265 262 260 255
253 250 250 251 249 247 246 248 253 254 253 256 260 260 262 262 262 265 266 263 257 255 258 256 234 238 246 252 258 258 252 233 216 226 254 260 271 270
258 256 253 249 247 246 249 250 255 258 255 257 260 259 261 263 266 265 265 266 262 256 254 251 244 243 248 247 253 257 251 240 239 231 231 210 211 228
Height
1536 1536 1536 1536 1536 1536 1536 1536 1537 1535 1535 1534 1534 1534 1533 1533 1532 1532 1532 1530 1530 1530 1530 1530 1530 1530 1530 1531 1531 1532 1532 1533 1533 1533 1534 1534 1534 1535
1533 1533 1533 1534 1534 1533 1533 1533 1534 1534 1533 1533 1532 1532 1531 1532 1530 1530 1529 1528 1527 1527 1527 1527 1527 1527 1528 1528 1528 1529 1529 1530 1530 1530 1531 1531 1531 1532
1531 1531 1530 1530 1531 1531 1531 1531 1531 1531 1531 1531 1530 1529 1529 1529 1528 1528 1527 1526 1526 1525 1525 1524 1524 1524 1525 1525 1525 1526 1526 1526 1527 1527 1527 1528 1528 1529
1528 1528 1528 1528 1527 1528 1528 1528 1528 1528 1528 1528 1528 1528 1527 1526 1526 1525 1526 1526 1525 1523 1522 1521 1521 1521 1521 1521 1522 1522 1522 1523 1523 1523 1524 1524 1525 1525
1526 1526 1526 1526 1525 1525 1525 1526 1526 1526 1526 1525 1525 1525 1525 1525 1524 1523 1523 1522 1523 1521 1520 1519 1519 1518 1518 1518 1518 1518 1519 1519 1519 1519 1520 1521 1521 1522
1523 1523 1523 1523 1523 1523 1523 1523 1523 1524 1523 1523 1523 1523 1523 1522 1522 1521 1521 1520 1520 1520 1518 1517 1516 1515 1515 1515 1515 1515 1515 1515 1515 1516 1516 1517 1518 1518
1521 1521 1520 1520 1520 1520 1521 1521 1521 1521 1521 1521 1521 1521 1520 1520 1520 1519 1519 1518 1517 1517 1516 1516 1515 1514 1513 1512 1511 1511 1511 1512 1512 1512 1512 1513 1514 1514
1518 1518 1518 1518 1517 1517 1518 1518 1518 1519 1519 1519 1518 1518 1517 1517 1516 1516 1516 1515 1515 1514 1513 1513 1512 1511 1510 1510 1509 1508 1508 1508 1508 1509 1509 1509 1510 1511
1515 1515 1516 1516 1515 1515 1515 1515 1515 1515 1516 1516 1516 1515 1515 1514 1513 1513 1513 1512 1511 1511 1510 1509 1509 1508 1507 1506 1505 1505 1505 1504 1504 1504 1505 1505 1506 1507
1512 1512 1512 1512 1512 1513 1513 1513 1513 1513 1512 1513 1513 1513 1512 1511 1511 1511 1510 1509 1508 1507 1507 1506 1506 1505 1504 1503 1502 1501 1501 1501 1501 1501 1501 1501 1502 1502
1509 1509 1508 1508 1509 1509 1510 1510 1510 1510 1510 1509 1509 1509 1508 1508 1508 1508 1507 1507 1506 1505 1504 1504 1503 1502 1501 1501 1499 1498 1497 1497 1497 1497 1497 1497 1498 1498
1505 1505 1505 1505 1506 1506 1507 1507 1507 1507 1507 1507 1506 1506 1505 1505 1504 1504 1504 1504 1503 1503 1501 1501 1500 1500 1499 1498 1497 1496 1495 1494 1493 1493 1493 1493 1494 1494
1503 1502 1502 1502 1502 1502 1503 1504 1504 1504 1504 1504 1504 1503 1503 1502 1502 1501 1500 1500 1499 1499 1499 1498 1497 1497 1496 1495 1494 1493 1492 1491 1491 1490 1490 1490 1490 1491
1498 1499 1499 1498 1498 1499 1499 1499 1500 1500 1501 1501 1501 1500 1500 1500 1499 1498 1496 1495 1495 1495 1494 1495 1494 1494 1493 1492 1491 1490 1489 1488 1488 1487 1487 1486 1487 1487
1494 1494 1494 1494 1494 1495 1495 1496 1496 1497 1497 1497 1497 1497 1497 1496 1495 1494 1493 1492 1491 1491 1491 1490 1490 1490 1490 1489 1488 1487 1486 1485 1485 1484 1484 1484 1483 1483
1489 1490 1490 1490 1490 1491 1492 1492 1493 1493 1494 1493 1493 1493 1493 1492 1491 1491 1490 1489 1488 1488 1487 1486 1485 1486 1485 1485 1484 1483 1483 1482 1482 1481 1481 1481 1481 1480
1485 1485 1486 1486 1487 1487 1488 1488 1489 1489 1489 1489 1489 1489 1489 1488 1488 1487 1486 1486 1485 1484 1483 1482 1482 1481 1481 1481 1480 1480 1479 1479 1479 1478 1478 1478 1477 1477
1481 1481 1482 1483 1483 1484 1484 1484 1484 1485 1485 1485 1485 1485 1485 1484 1484 1483 1483 1482 1482 1481 1480 1479 1479 1479 1478 1477 1477 1476 1476 1476 1475 1475 1475 1474 1474 1474
1478 1478 1479 1479 1479 1480 1480 1480 1481 1481 1481 1481 1480 1480 1480 1480 1480 1480 1479 1479 1478 1478 1477 1477 1476 1476 1475 1474 1473 1473 1473 1472 1472 1471 1471 1471 1470 1470
1474 1475 1475 1475 1475 1476 1476 1476 1477 1477 1477 1476 1476 1476 1476 1476 1476 1475 1475 1475 1474 1474 1473 1473 1472 1472 1472 1471 1470 1469 1468 1468 1468 1468 1468 1467 1467 1466
1471 1471 1471 1471 1471 1472 1472 1472 1472 1472 1472 1472 1472 1472 1472 1472 1471 1471 1471 1470 1470 1470 1469 1469 1468 1468 1468 1467 1466 1465 1465 1464 1464 1464 1464 1464 1463 1462
1466 1467 1467 1467 1467 1468 1468 1468 1468 1468 1468 1468 1468 1468 1468 1468 1467 1467 1467 1466 1466 1465 1465 1465 1464 1464 1464 1463 1462 1461 1461 1460 1460 1460 1459 1459 1459 1458
1462 1462 1463 1463 1463 1463 1464 1464 1464 1464 1464 1464 1464 1464 1464 1463 1463 1463 1462 1462 1462 1461 1461 1461 1460 1460 1460 1459 1459 1458 1457 1457 1456 1456 1456 1455 1455 1455